Mackinac Island, MI

1:43 AM EDT on June 23, 2017 (GMT -0400)
Mackinac Island

Weather History for KMCD - April, 2012

Change the Weather History Date:

Sunday, April 22, 2012

  Actual Average Record
Temperature  
Mean Temperature 40 °F -  
Max Temperature 52 °F 48 °F 73 °F (2007)
Min Temperature 29 °F 32 °F 23 °F (1986)
Degree Days  
Heating Degree Days 24    
Moisture  
Dew Point 24 °F    
Average Humidity 54    
Maximum Humidity 91    
Minimum Humidity 25    
Precipitation  
Precipitation 0.00 in - - ()
Sea Level Pressure  
Sea Level Pressure 30.12 in    
Wind  
Wind Speed 3 mph (NE)    
Max Wind Speed 12 mph    
Max Gust Speed 17 mph    
Visibility 10 miles    
Events      
Averages and records for this station are not official NWS values.
T = Trace of Precipitation, MM = Missing Value Source: NWS Daily Summary

Daily Weather History Graph

Daily Weather History Graph

Search for Another Location

Airport or City:

Trip Planner

Search our weather history database for the weather conditions in past years. The results will help you decide how hot, cold, wet, or windy it might be!

Date:

Astronomy

Apr. 22, 2012 Rise Set
Actual Time 6:39 AM EDT 8:35 PM EDT
Civil Twilight 6:07 AM EDT 9:07 PM EDT
Nautical Twilight 5:28 AM EDT 9:46 PM EDT
Astronomical Twilight 4:45 AM EDT 10:30 PM EDT
Moon 7:05 AM EDT (4/22) 10:17 PM EDT (4/22)
Length of Visible Light 14h 59m
Length of Day
13h 55m
New Moon, 2% of the Moon is Illuminated
Apr 22
New Moon
Apr 29
First Quarter
May 5
Full
May 12
Last Quarter
May 20
New

Hourly Weather History & Observations

Time (EDT) Temp. Windchill Dew Point Humidity Pressure Visibility Wind Dir Wind Speed Gust Speed Precip Events Conditions
12:16 AM 33.4 °F - 26.2 °F 75% 30.09 in 10.0 mi Calm Calm - N/A   Clear
12:56 AM 33.1 °F - 27.5 °F 80% 30.10 in 10.0 mi Calm Calm - N/A   Clear
1:16 AM 32.5 °F - 27.1 °F 80% 30.10 in 10.0 mi Calm Calm - N/A   Clear
1:36 AM 34.2 °F 31.2 °F 26.6 °F 74% 30.10 in 10.0 mi NNE 3.5 mph - N/A   Clear
1:56 AM 34.5 °F 31.6 °F 26.6 °F 73% 30.09 in 10.0 mi NE 3.5 mph - N/A   Clear
2:16 AM 33.8 °F 30.8 °F 27.0 °F 76% 30.09 in 10.0 mi NNE 3.5 mph - N/A   Clear
2:36 AM 32.2 °F - 27.3 °F 82% 30.08 in 10.0 mi Calm Calm - N/A   Clear
2:56 AM 32.2 °F - 28.0 °F 85% 30.08 in 10.0 mi Calm Calm - N/A   Clear
3:16 AM 32.9 °F - 28.4 °F 84% 30.08 in 10.0 mi Calm Calm - N/A   Clear
3:36 AM 32.0 °F 28.7 °F 28.2 °F 86% 30.08 in 10.0 mi NNE 3.5 mph - N/A   Clear
3:56 AM 32.0 °F - 28.4 °F 87% 30.08 in 10.0 mi Calm Calm - N/A   Clear
4:16 AM 30.9 °F - 27.5 °F 87% 30.08 in 10.0 mi Calm Calm - N/A   Clear
4:36 AM 30.2 °F - 27.3 °F 89% 30.09 in 10.0 mi Calm Calm - N/A   Clear
4:56 AM 29.8 °F - 27.3 °F 90% 30.09 in 10.0 mi Calm Calm - N/A   Clear
5:16 AM 29.7 °F 26.1 °F 27.3 °F 91% 30.09 in 10.0 mi NE 3.5 mph - N/A   Clear
5:36 AM 30.2 °F 26.7 °F 27.7 °F 90% 30.10 in 10.0 mi ENE 3.5 mph - N/A   Clear
5:56 AM 32.7 °F 29.6 °F 28.4 °F 84% 30.10 in 10.0 mi East 3.5 mph - N/A   Clear
6:16 AM 33.4 °F 29.1 °F 27.7 °F 79% 30.10 in 10.0 mi East 4.6 mph - N/A   Clear
6:36 AM 33.4 °F 30.4 °F 26.2 °F 75% 30.11 in 10.0 mi ENE 3.5 mph - N/A   Clear
6:56 AM 33.6 °F 30.6 °F 26.6 °F 75% 30.12 in 10.0 mi ENE 3.5 mph - N/A   Clear
7:16 AM 34.3 °F 31.4 °F 26.6 °F 73% 30.13 in 10.0 mi ENE 3.5 mph - N/A   Clear
7:36 AM 35.6 °F 32.8 °F 26.4 °F 69% 30.14 in 10.0 mi ENE 3.5 mph - N/A   Clear
7:56 AM 36.7 °F 32.9 °F 26.8 °F 67% 30.15 in 10.0 mi ENE 4.6 mph - N/A   Clear
8:16 AM 37.8 °F 34.2 °F 27.5 °F 67% 30.16 in 10.0 mi ENE 4.6 mph - N/A   Clear
8:36 AM 38.5 °F 36.1 °F 27.9 °F 66% 30.16 in 10.0 mi ENE 3.5 mph - N/A   Clear
8:56 AM 39.2 °F - 28.2 °F 65% 30.17 in 10.0 mi Calm Calm - N/A   Clear
9:16 AM 40.1 °F - 28.6 °F 63% 30.17 in 10.0 mi Calm Calm - N/A   Clear
9:36 AM 40.3 °F 38.2 °F 27.5 °F 60% 30.17 in 10.0 mi East 3.5 mph - N/A   Clear
9:56 AM 41.4 °F 37.6 °F 26.1 °F 55% 30.18 in 10.0 mi East 5.8 mph - N/A   Clear
10:16 AM 41.4 °F - 25.5 °F 53% 30.18 in 10.0 mi Calm Calm - N/A   Clear
10:36 AM 42.4 °F 38.1 °F 22.5 °F 45% 30.18 in 10.0 mi East 6.9 mph - N/A   Clear
10:56 AM 43.3 °F - 22.5 °F 44% 30.18 in 10.0 mi Calm Calm - N/A   Clear
11:16 AM 44.1 °F 40.8 °F 21.6 °F 41% 30.18 in 10.0 mi East 5.8 mph - N/A   Clear
11:36 AM 45.1 °F 41.4 °F 20.8 °F 38% 30.18 in 10.0 mi East 6.9 mph - N/A   Clear
11:56 AM 44.6 °F 41.4 °F 19.9 °F 37% 30.17 in 10.0 mi East 5.8 mph - N/A   Clear
12:16 PM 45.3 °F 42.3 °F 20.7 °F 38% 30.17 in 10.0 mi ESE 5.8 mph - N/A   Clear
12:36 PM 45.3 °F 41.6 °F 19.0 °F 35% 30.17 in 10.0 mi East 6.9 mph - N/A   Clear
12:56 PM 45.9 °F 43.6 °F 19.8 °F 35% 30.17 in 10.0 mi ESE 4.6 mph - N/A   Clear
1:16 PM 46.6 °F - 18.9 °F 33% 30.16 in 10.0 mi ESE 6.9 mph - N/A   Clear
1:36 PM 45.7 °F 42.0 °F 16.5 °F 31% 30.15 in 10.0 mi ESE 6.9 mph - N/A   Clear
1:56 PM 46.0 °F 43.9 °F 16.5 °F 31% 30.15 in 10.0 mi SSE 4.6 mph - N/A   Clear
2:16 PM 47.3 °F - 16.9 °F 30% 30.14 in 10.0 mi NNE 3.5 mph - N/A   Clear
2:36 PM 47.7 °F - 16.5 °F 29% 30.13 in 10.0 mi ESE 3.5 mph - N/A   Clear
2:56 PM 48.2 °F - 18.3 °F 31% 30.12 in 10.0 mi South 4.6 mph - N/A   Clear
3:16 PM 47.8 °F - 18.7 °F 31% 30.12 in 10.0 mi Calm Calm - N/A   Clear
3:36 PM 50.2 °F - 19.0 °F 29% 30.11 in 10.0 mi North 3.5 mph - N/A   Clear
3:56 PM 52.3 °F - 16.9 °F 25% 30.10 in 10.0 mi NNE 4.6 mph - N/A   Clear
4:16 PM 50.2 °F - 23.4 °F 35% 30.10 in 10.0 mi WSW 5.8 mph - N/A   Clear
4:36 PM 48.7 °F - 20.1 °F 32% 30.10 in 10.0 mi West 5.8 mph - N/A   Clear
4:56 PM 48.2 °F - 20.5 °F 33% 30.10 in 10.0 mi West 4.6 mph - N/A   Clear
5:16 PM 49.1 °F - 23.2 °F 36% 30.09 in 10.0 mi WNW 3.5 mph - N/A   Clear
5:36 PM 50.5 °F - 23.7 °F 35% 30.09 in 10.0 mi NW 5.8 mph - N/A   Clear
5:56 PM 52.5 °F - 21.2 °F 29% 30.09 in 10.0 mi North 6.9 mph - N/A   Clear
6:16 PM 52.3 °F - 20.7 °F 29% 30.09 in 10.0 mi North 9.2 mph - N/A   Clear
6:36 PM 51.6 °F - 20.7 °F 30% 30.09 in 10.0 mi North 10.4 mph 17.3 mph N/A   Clear
6:56 PM 50.5 °F - 19.8 °F 30% 30.09 in 10.0 mi NNE 8.1 mph - N/A   Clear
7:16 PM 50.0 °F - 20.3 °F 31% 30.09 in 10.0 mi North 8.1 mph - N/A   Clear
7:36 PM 48.6 °F - 21.0 °F 34% 30.09 in 10.0 mi North 11.5 mph 16.1 mph N/A   Clear
7:56 PM 47.1 °F - 20.3 °F 35% 30.09 in 10.0 mi North 11.5 mph 16.1 mph N/A   Clear
8:16 PM 45.5 °F 40.3 °F 20.3 °F 37% 30.10 in 10.0 mi North 10.4 mph 17.3 mph N/A   Clear
8:36 PM 44.4 °F 38.6 °F 22.6 °F 42% 30.10 in 10.0 mi North 11.5 mph - N/A   Clear
8:56 PM 43.9 °F 39.3 °F 21.9 °F 42% 30.10 in 10.0 mi North 8.1 mph - N/A   Clear
9:16 PM 43.3 °F 38.1 °F 22.8 °F 44% 30.10 in 10.0 mi North 9.2 mph - N/A   Clear
9:36 PM 42.3 °F 36.3 °F 23.0 °F 47% 30.11 in 10.0 mi North 10.4 mph - N/A   Clear
9:56 PM 41.4 °F 36.2 °F 24.6 °F 51% 30.11 in 10.0 mi North 8.1 mph - N/A   Clear
10:16 PM 41.0 °F 35.8 °F 23.2 °F 49% 30.11 in 10.0 mi North 8.1 mph 16.1 mph N/A   Clear
10:36 PM 40.5 °F 34.6 °F 23.7 °F 51% 30.10 in 10.0 mi North 9.2 mph - N/A   Clear
10:56 PM 40.1 °F 34.1 °F 23.7 °F 52% 30.10 in 10.0 mi North 9.2 mph - N/A   Clear
11:16 PM 39.4 °F 32.7 °F 23.9 °F 54% 30.10 in 10.0 mi North 10.4 mph - N/A   Clear
11:36 PM 39.2 °F 32.5 °F 24.1 °F 55% 30.10 in 10.0 mi North 10.4 mph 16.1 mph N/A   Clear
11:56 PM 39.0 °F 32.8 °F 24.8 °F 57% 30.09 in 10.0 mi North 9.2 mph - N/A   Clear